Regional Weather Roundup
Issued by NWS

Home | Current Version | Previous Version | Text Only | Print | Product List | Glossary Off
Versions: 1 2 3 4 5 6 7 8 9 10 11 12 13 14 15 16 17 18 19 20 21 22 23 24 25 26 27 28 29 30 31 32 33 34 35 36 37 38 39 40 41 42 43 44 45 46 47 48 49 50

000
ASUS43 KMPX 061910
RWRMN
WEATHER ROUNDUP FOR MINNESOTA
NATIONAL WEATHER SERVICE TWIN CITIES/CHANHASSEN MN
200 PM CDT WED MAY 06 2015


NOTE: "FAIR" INDICATES FEW OR NO CLOUDS BELOW 12,000 FEET WITH NO
SIGNIFICANT WEATHER AND/OR OBSTRUCTIONS TO VISIBILITY. N/A MEANS
CURRENT SKY AND/OR WEATHER CONDITIONS ARE NOT AVAILABLE.

MNZ060>063-068>070-062000-
   Twin Cities Metro

CITY           SKY/WX    TMP DP  RH WIND       PRES   REMARKS
TWIN CITIES    CLOUDY    69  59  70 E16       29.96F
ST PAUL        CLOUDY    69  59  70 SE13      29.97F
CRYSTAL        CLOUDY    71  59  65 E12G21    29.94F
BLAINE         CLOUDY   N/A N/A N/A E12       29.97  FOG
LAKEVILLE      CLOUDY    70  61  73 E18       29.95F
EDEN PRAIRIE   CLOUDY    70  59  68 E17       29.93F
SOUTH ST PAUL  CLOUDY    69  58  68 SE8       29.97F
LAKE ELMO      FAIR      68  61  77 E8        30.00F
$$
MNZ001>005-007-008-013>017-022>024-027-028-062000-
   Northwest Minnesota

CITY           SKY/WX    TMP DP  RH WIND       PRES   REMARKS
BEMIDJI        DRIZZLE   62  55  77 SE10      29.93F
HALLOCK        CLOUDY    64  61  88 S10       29.85S
ROSEAU         CLOUDY    72  55  56 SE13      29.89F
WARROAD        CLOUDY    66  57  72 SE10      29.91F
THIEF RVR FALL CLOUDY    66  55  68 SE13      29.89S
CROOKSTON      LGT RAIN  64  59  82 SE16      29.87F
FOSSTON        LGT RAIN  63  54  72 SE10      29.90F
DETROIT LAKES  CLOUDY    63  55  77 SE15      29.90S
MOORHEAD       LGT RAIN  64  61  88 SE10      29.86S
PARK RAPIDS    LGT RAIN  62  55  77 SE12      29.92F
MAHNOMEN       DRIZZLE   61  56  84 SE10      29.88F
$$
MNZ006-009>011-018-025>026-062000-
   North Central Minnesota

CITY           SKY/WX    TMP DP  RH WIND       PRES   REMARKS
BAUDETTE       CLOUDY    62  54  74 SE15      29.94F
FLAG ISLAND    CLOUDY    59  52  77 SE7       29.92F
INTL FALLS     CLOUDY    66  54  65 SE13      29.97F
WASKISH        CLOUDY    70  55  60 SE13      29.93F
BIG FORK       CLOUDY    66  54  63 SE9       29.98F
LONGVILLE      CLOUDY    64  54  68 E5        29.96F
GRAND RAPIDS   CLOUDY    64  52  63 SE12G17   30.00F
CRANE LAKE     CLOUDY    63  52  67 S3        30.04S
ORR            CLOUDY    64  52  63 SE10G18   29.99F
COOK           CLOUDY    61  54  77 SE7G17    30.04F
WALKER         CLOUDY    61  53  75 SE5       29.94F
$$
MNZ012-019>021-037-062000-
   Northeast Minnesota

CITY           SKY/WX    TMP DP  RH WIND       PRES   REMARKS
DULUTH         CLOUDY    56  49  77 E13       30.06F
ELY            CLOUDY    57  48  72 SE9       30.06F
HIBBING        CLOUDY    61  51  70 SE12      30.03F
EVELETH        CLOUDY    57  54  88 SE8       30.06F
DULUTH HARBOR  CLOUDY    45  39  81 NE14      30.09S
TWO HARBORS    CLOUDY    59  50  72 E14       30.07S
SILVER BAY     CLOUDY    59  37  44 NE10      30.08F
GRAND MARAIS     N/A     50  29  44 E10       30.13F
G MARAIS ARPRT MOSUNNY   57  36  44 SE7       30.14S
$$
MNZ029>031-032-039>041-046>048-054>057-064-062000-
   West Central Minnesota

CITY           SKY/WX    TMP DP  RH WIND       PRES   REMARKS
FERGUS FALLS   CLOUDY    63  57  82 SE14G20   29.86F
WHEATON        CLOUDY    63  57  82 E22       29.82F
MORRIS         CLOUDY    70  59  68 E22       29.81F
ALEXANDRIA     CLOUDY    64  57  78 E20G25    29.89F
ELBOW LAKE     FAIR      63  57  82 E18G25    29.85F
WADENA         CLOUDY    59  55  88 SE12      29.92S FOG
GLENWOOD       CLOUDY    66  59  77 E16G24    29.89F
APPLETON       CLOUDY    73  57  56 SE21G28   29.79F
BENSON         CLOUDY    72  57  60 SE16G24   29.82F
ORTONVILLE     CLOUDY    66  59  77 SE15G23   29.79F
MADISON        CLOUDY    70  57  64 SE20      29.79F
WILLMAR        FAIR      75  59  57 E25G33    29.85F
$$
MNZ033>034-036-042>043-049>051-058-059-062000-
   Central Minnesota

CITY           SKY/WX    TMP DP  RH WIND       PRES   REMARKS
ST CLOUD       CLOUDY    68  57  68 E12       29.93F
SAUK CENTRE    FAIR      66  57  73 E15       29.90F
PAYNESVILLE    CLOUDY    66  57  72 NE15      29.90F
AITKIN           N/A     70  55  60 SE8       29.96F
PINE RIVER     CLOUDY    63  54  72 E13       29.99F
BRAINERD       CLOUDY    63  55  75 SE9G21    29.97F
STAPLES        CLOUDY    63  54  72 E9G16     29.93F
LONG PRAIRIE   PTSUNNY   61  55  82 E12       29.92F HAZE
LITTLE FALLS   CLOUDY    66  55  68 E12       29.93F
LITCHFIELD     PTSUNNY   73  63  68 E18G24    29.89F
BUFFALO        CLOUDY    70  57  63 E17       29.94F
MAPLE LAKE     CLOUDY    70  61  72 E8G18     29.94F
$$
MNZ037-044-045-052-053-062000-
   East Central Minnesota

CITY           SKY/WX    TMP DP  RH WIND       PRES   REMARKS
PRINCETON      CLOUDY    70  57  64 E14       29.96F
MORA           CLOUDY    64  55  72 E9        30.01F
CAMBRIDGE      CLOUDY    70  55  60 NE9       29.96F
RUSH CITY      CLOUDY    69  57  65 E8        29.99F
MOOSE LAKE     CLOUDY    68  50  52 E9        29.99F
HINCKLEY       FAIR      66  55  68 SE9       30.00F
CLOQUET        CLOUDY    57  46  67 E14       30.04F
MCGREGOR       CLOUDY    70  55  60 E10       29.99F
$$
MNZ071>073-080-081-089-090-097-098-062000-
   Southwest Minnesota

CITY           SKY/WX    TMP DP  RH WIND       PRES   REMARKS
MONTEVIDEO     CLOUDY    73  57  56 S28       29.80F
GRANITE FALLS  CLOUDY    75  58  54 E18G29    29.81F
CANBY          LGT RAIN  68  60  75 SE18G24   29.78F
MARSHALL       CLOUDY    68  57  68 S30G41    29.79F
REDWOOD FALLS  PTSUNNY   76  56  49 SE23G36   29.81F
OLIVIA         CLOUDY    73  54  49 E17G30    29.82F
PIPESTONE      CLOUDY    63  63 100 SE22G29   29.80F
WINDOM         PTSUNNY   66  63  88 SE16      29.85S
WORTHINGTON    PTSUNNY   64  61  88 S24G31    29.83F
JACKSON        CLOUDY    70  61  73 S18G26    29.86F
TRACY          LGT RAIN  68  64  85 SE20G29   29.82S
SLAYTON        CLOUDY    65  63  92 SE25      29.83F FOG
$$
MNZ065>067-074>077-082>085-091>093-062000-
   South Central Minnesota

CITY           SKY/WX    TMP DP  RH WIND       PRES   REMARKS
MANKATO        PTSUNNY   75  57  53 SE22G33   29.89F
NEW ULM        PTSUNNY   77  54  44 SE20G32   29.84F
ST JAMES       CLOUDY    75  57  53 SE20G29   29.86F
FAIRMONT       PTSUNNY   72  45  37 SE24G30   29.85F
GLENCOE        PTSUNNY   76  61  59 E18G26    29.89F
FARIBAULT      PTSUNNY   75  59  57 E17G23    29.94F
OWATONNA       PTSUNNY   75  57  53 SE21      29.94F
WASECA         PTSUNNY   73  57  56 E22G29    29.93F
ALBERT LEA     PTSUNNY   72  61  68 SE21G28   29.93F
$$
MNZ078>079-086>088-094>096-062000-
   Southeast Minnesota

CITY           SKY/WX    TMP DP  RH WIND       PRES   REMARKS
ROCHESTER      CLOUDY    70  61  73 SE20G25   29.99F
RED WING       PTSUNNY   70  59  68 SE12      29.98F
STANTON        CLOUDY    72  59  63 E13G20    29.95F
DODGE CENTER   CLOUDY    73  61  64 SE17G25   29.97F
WINONA         MOSUNNY   72  61  68 SE8       30.02F
AUSTIN         PTSUNNY   70  61  73 SE15G23   29.96F
PRESTON        CLOUDY    70  59  69 SE13      30.01F
$$
ABBREVIATIONS USED IN REMARKS
   TC - TEMPERATURES IN CELSIUS
  WCI - WIND CHILL INDEX
   HX - HEAT INDEX
  VSB - VISIBILITY
$$



USA.gov is the U.S. government's official web portal to all federal, state and local government web resources and services.